📊 Raw Sensor Data
Showing records 43801 to 43825 of 85,024 total
| ID | Distance (ft) | Battery V | Battery A | Int Temp (°F) | Int Humid (%) | Ext Temp (°F) | Solar V | RSSI | SNR | Time Stamp |
|---|---|---|---|---|---|---|---|---|---|---|
| 41236 | 15.3 | 3.95 | 0 | 83 | 42 | 79 | 5.10 | -69 | 8 | 05/21/2025 11:45 AM |
| 41235 | 15.3 | 3.95 | 0 | 82 | 42 | 80 | 5.10 | -71 | 8 | 05/21/2025 11:30 AM |
| 41234 | 15.3 | 3.94 | 0 | 81 | 42 | 78 | 5.10 | -70 | 8 | 05/21/2025 11:15 AM |
| 41233 | 15.3 | 3.94 | 0 | 80 | 41 | 79 | 5.10 | -69 | 7 | 05/21/2025 11:00 AM |
| 41232 | 15.3 | 4.08 | 0 | 78 | 41 | 78 | 5.10 | -70 | 8 | 05/21/2025 10:45 AM |
| 41231 | 15.3 | 3.94 | 0 | 77 | 41 | 77 | 5.10 | -68 | 7 | 05/21/2025 10:30 AM |
| 41230 | 15.3 | 3.94 | 0 | 76 | 41 | 75 | 5.10 | -69 | 7 | 05/21/2025 10:15 AM |
| 41229 | 15.3 | 3.94 | 0 | 75 | 41 | 75 | 5.10 | -71 | 7 | 05/21/2025 10:00 AM |
| 41228 | 15.3 | 3.94 | 0 | 74 | 41 | 72 | 5.10 | -69 | 7 | 05/21/2025 09:45 AM |
| 41227 | 15.4 | 3.94 | 0 | 72 | 41 | 71 | 5.10 | -71 | 7 | 05/21/2025 09:15 AM |
| 41226 | 15.3 | 4.12 | 0 | 71 | 41 | 71 | 5.10 | -69 | 8 | 05/21/2025 09:00 AM |
| 41225 | 15.3 | 3.94 | 0 | 69 | 41 | 69 | 5.10 | -69 | 8 | 05/21/2025 08:45 AM |
| 41224 | 15.4 | 3.94 | 0 | 68 | 41 | 69 | 5.10 | -69 | 7 | 05/21/2025 08:30 AM |
| 41223 | 15.4 | 4.11 | 0 | 66 | 41 | 68 | 5.10 | -70 | 8 | 05/21/2025 08:15 AM |
| 41222 | 15.4 | 4.11 | 0 | 64 | 41 | 65 | 5.10 | -69 | 8 | 05/21/2025 08:00 AM |
| 41221 | 15.4 | 3.94 | 0 | 62 | 40 | 65 | 5.10 | -69 | 8 | 05/21/2025 07:45 AM |
| 41220 | 15.4 | 4.07 | 52 | 60 | 40 | 62 | 4.50 | -69 | 8 | 05/21/2025 07:30 AM |
| 41219 | 15.4 | 3.98 | 7 | 57 | 40 | 61 | 4.50 | -70 | 8 | 05/21/2025 07:15 AM |
| 41218 | 15.3 | 3.96 | 7 | 52 | 40 | 58 | 4.50 | -69 | 8 | 05/21/2025 06:45 AM |
| 41217 | 15.3 | 3.95 | 0 | 50 | 40 | 56 | 4.50 | -69 | 8 | 05/21/2025 06:30 AM |
| 41216 | 15.2 | 3.89 | 0 | 48 | 41 | 53 | 4.50 | -70 | 8 | 05/21/2025 06:15 AM |
| 41215 | 15.2 | 3.87 | -13 | 46 | 42 | 50 | 4.50 | -69 | 9 | 05/21/2025 06:00 AM |
| 41214 | 15.2 | 3.87 | -9 | 45 | 42 | 48 | 4.00 | -69 | 8 | 05/21/2025 05:45 AM |
| 41213 | 15.2 | 3.88 | -5 | 46 | 42 | 48 | 0.70 | -69 | 9 | 05/21/2025 05:30 AM |
| 41212 | 15.2 | 3.88 | -5 | 46 | 42 | 48 | 0.00 | -69 | 8 | 05/21/2025 05:15 AM |